Other Surface Observations
Issued by NWS

Home | Current Version | Previous Version | Text Only | Print | Product List | Glossary On
Versions: 1 2 3 4 5 6 7 8 9 10 11 12 13 14 15 16 17 18 19 20 21 22 23 24 25 26 27 28 29 30 31 32 33 34 35 36 37 38 39 40 41 42 43 44 45 46 47 48 49 50
428
SXUS52 KTAE 220619
OSOTAE
OSOTAE
North Florida/South Alabama/Southwest Georgia Weather Roundup
National Weather Service Tallahassee Florida
200 AM EDT FRI SEP 22 2017

Note: "fair" indicates few or no clouds below 12,000 feet with no
significant weather and/or obstructions to visibility.

!FLZ017-115-028-034-025-220700
...North Florida...

CITY           SKY/WX    TMP DP  RH WIND       PRES   REMARKS
TALLAHASSEE    CLEAR     70  70 100 CALM      29.99S
APALACHICOLA   CLEAR     72  72 100 NE5       29.98S
PERRY          NOT AVBL
CROSS CITY     CLEAR     70  70  98 CALM      30.03S FOG
JACKSONVILLE   PTCLDY    72  72 100 CALM      29.98F
$$

!FLZ112-006-005-002-011-220700
...Florida Panhandle...

CITY           SKY/WX    TMP DP  RH WIND       PRES   REMARKS
MARIANNA       CLEAR     72  71  97 CALM      29.98F
BONIFAY        NOT AVBL
PANAMA CITY NW FAIR      71  69  93 CALM      29.97F
TYNDALL AFB    CLEAR     74  71  93 NE3       29.97F
TYND DRONE APT MOCLDY    72  70  96 NE3       29.97F
DE FUNIAK SPR  FAIR      71  70  97 E5        30.00R
EGLIN AFB      CLEAR     73  70  90 NE6       29.97S
DESTIN         CLEAR     77  70  79 CALM      29.97S
HURLBURT       CLEAR     72  69  89 N3        29.96S
CRESTVIEW      CLEAR     70  68  93 E3        29.99F FOG
PENSACOLA      CLEAR     78  74  87 CALM      29.96F
$$

!ALZ063-066-220700
...South Alabama...

CITY           SKY/WX    TMP DP  RH WIND       PRES   REMARKS
DOTHAN         CLEAR     71  71 100 CALM      30.03F
OZARK CAIRNS   CLEAR     71  70  94 E3        29.99F
FT RUCKER HELI PTCLDY    70  69  98 CALM      29.99F
RUCKER HELI 3  FAIR      71  70  95 CALM      29.99F
RUCKER HELI 2  FAIR      71  71  97 NE3       29.99S
FLORALA APT    NOT AVBL
ANDALUSIA      PTCLDY    74  70  87 SE3       29.99S
TROY           CLEAR     70  70 100 CALM      30.00F FOG
EUFALA         FAIR      72  71  97 CALM      29.99F
MOBILE         CLEAR     74  70  87 NW3       29.98F
$$

!GAZ120>161-220700
...Southwest and South Central Georgia...

CITY           SKY/WX    TMP DP  RH WIND       PRES   REMARKS
THOMASVILLE    FAIR      70  70 100 CALM      30.02S
BAINBRIDGE     CLEAR     72  72 100 CALM      30.00S
MOODY AFB      CLEAR     70  69  97 CALM      29.99F
VALDOSTA       CLOUDY    70  69  97 CALM      30.00F FOG
MOULTRIE       CLEAR     70  68  94 CALM      30.02S
BLAKELY        CLEAR     72  68  88 CALM      30.00F
ALBANY         CLEAR     72  69  90 N3        30.02F
TIFTON         FAIR      70  70 100 CALM      30.00F
FITZGERALD     FAIR      70  70 100 CALM      30.03S
CORDELE        FAIR      73  71  92 CALM      30.02S
AMERICUS       FAIR      68  68 100 CALM      30.03F
HOMERVILLE     FAIR      70  70 100 CALM      30.01S
$$

!GMZ750-755-770-775-220700
...Coastal and Buoy Obs...

STATION/POSITION TIME  TEMP    WIND        PRES    VSBY  WAVE
                       AIR SEA DIR/SP/G                  HT/PER
                 (UTC) (F)     (DEG/KT/KT) (MB)    (MI)  (FT/S)
KEATON BEACH     0600   72      60/  5/  7 1014.8F
CEDAR KEY        0600   78      90/  9/ 10 1015.1F
C TOWER          0600   79      60/ 11/ 11 1015.2F
APALACHICOLA BUO 0550   82 83   50/ 12/ 14 1014.0F         1/ 3
PANAMA CITY BUOY 0550   81 83   80/  6/  6 1014.0F         1/ 5
MOBILE BUOY      0600   82 85  100/  4/  6 1014.5
ORANGE BCH AL BU 0550   82 84  140/  2/  2 1014.3F         1
$$




USA.gov is the U.S. government's official web portal to all federal, state and local government web resources and services.